This is the latest recevied weather packets stored in our database for station/object IR3AS. If no packets are shown the sender has not sent any weather packets the latest 10 day(s).
| Time | Temp. | Humidity | Pressure | Rain* | Wind** | Luminosity | Snow |
|---|---|---|---|---|---|---|---|
| 1777711860 | 5.56° C | 58% | 865.6 hPa | 0 mm | - | - | - |
| 1777711560 | 5.56° C | 57% | 865.8 hPa | 0 mm | - | - | - |
| 1777711260 | 5.56° C | 56% | 865.5 hPa | 0 mm | - | - | - |
| 1777710960 | 5.56° C | 56% | 865.6 hPa | 0 mm | - | - | - |
| 1777710660 | 5.56° C | 57% | 865.7 hPa | 0 mm | - | - | - |
| 1777710360 | 5.56° C | 57% | 865.5 hPa | 0 mm | - | - | - |
| 1777710060 | 5° C | 57% | 865.5 hPa | 0 mm | - | - | - |
| 1777709760 | 5° C | 57% | 865.3 hPa | 0 mm | - | - | - |
| 1777709460 | 5° C | 56% | 865.3 hPa | 0 mm | - | - | - |
| 1777709160 | 4.44° C | 58% | 865.2 hPa | 0 mm | - | - | - |
| 1777708860 | 4.44° C | 57% | 865.4 hPa | 0 mm | - | - | - |
| 1777708560 | 4.44° C | 58% | 865.1 hPa | 0 mm | - | - | - |
| 1777708260 | 4.44° C | 58% | 864.9 hPa | 0 mm | - | - | - |
| 1777707961 | 4.44° C | 58% | 865 hPa | 0 mm | - | - | - |
| 1777707660 | 4.44° C | 59% | 864.8 hPa | 0 mm | - | - | - |
| 1777707361 | 4.44° C | 59% | 865 hPa | 0 mm | - | - | - |
| 1777707060 | 4.44° C | 57% | 864.7 hPa | 0 mm | - | - | - |
| 1777706761 | 3.89° C | 60% | 864.7 hPa | 0 mm | - | - | - |
| 1777706461 | 3.89° C | 60% | 864.7 hPa | 0 mm | - | - | - |
| 1777706161 | 3.89° C | 60% | 864.7 hPa | 0 mm | - | - | - |
| 1777705861 | 4.44° C | 60% | 864.4 hPa | 0 mm | - | - | - |
| 1777705561 | 4.44° C | 60% | 864.2 hPa | 0 mm | - | - | - |
| 1777705262 | 4.44° C | 59% | 864.1 hPa | 0 mm | - | - | - |
| 1777704961 | 5° C | 57% | 863.9 hPa | 0 mm | - | - | - |
| 1777704661 | 5.56° C | 56% | 863.8 hPa | 0 mm | - | - | - |
* Rain latest hour (hover to see other rain measurements)
** Current wind speed in m/s (hover to see current wind gust speed)